EN

Hourly Weather Barnsley

Today, 27 October, Tuesday

Time Temperature Precipitation Wind Pressure Humidity
00:00 +7°C° 0 mm 4 mps 737 mmHg 85%
01:00 +6°C° 0 mm 4 mps 737 mmHg 85%
02:00 +6°C° 0 mm 4 mps 737 mmHg 86%
03:00 +6°C° 0 mm 4 mps 737 mmHg 87%
04:00 +6°C° 0 mm 4 mps 737 mmHg 87%
05:00 +5°C° 0 mm 4 mps 736 mmHg 87%
06:00 +5°C° 0 mm 3 mps 736 mmHg 87%
07:00 +5°C° 0.1 mm 4 mps 736 mmHg 86%
08:00 +6°C° 0.1 mm 4 mps 736 mmHg 86%
09:00 +7°C° 0.1 mm 4 mps 735 mmHg 86%
10:00 +7°C° 0.7 mm 5 mps 735 mmHg 88%
11:00 +7°C° 0.7 mm 5 mps 734 mmHg 90%
12:00 +8°C° 0.7 mm 5 mps 733 mmHg 92%
13:00 +8°C° 0.5 mm 5 mps 732 mmHg 91%
14:00 +9°C° 0.5 mm 6 mps 732 mmHg 89%
15:00 +10°C° 0.5 mm 6 mps 731 mmHg 88%
16:00 +9°C° 0.2 mm 6 mps 731 mmHg 83%
17:00 +8°C° 0.2 mm 6 mps 732 mmHg 78%
18:00 +7°C° 0.2 mm 6 mps 732 mmHg 74%
19:00 +7°C° 0 mm 5 mps 733 mmHg 74%
20:00 +6°C° 0 mm 5 mps 734 mmHg 75%
21:00 +6°C° 0 mm 5 mps 735 mmHg 76%
22:00 +6°C° 0 mm 5 mps 735 mmHg 77%
23:00 +5°C° 0 mm 6 mps 736 mmHg 78%

Tomorrow, 28 October, Wednesday

Time Temperature Precipitation Wind Pressure Humidity
00:00 +5°C° 0 mm 6 mps 736 mmHg 79%
01:00 +5°C° 0 mm 6 mps 736 mmHg 79%
02:00 +5°C° 0 mm 6 mps 736 mmHg 80%
03:00 +5°C° 0 mm 6 mps 736 mmHg 80%
04:00 +5°C° 0 mm 6 mps 736 mmHg 80%
05:00 +5°C° 0 mm 6 mps 736 mmHg 81%
06:00 +5°C° 0 mm 6 mps 736 mmHg 81%
07:00 +5°C° 0 mm 6 mps 736 mmHg 79%
08:00 +7°C° 0 mm 6 mps 737 mmHg 78%
09:00 +7°C° 0 mm 6 mps 737 mmHg 76%
10:00 +8°C° 0 mm 7 mps 737 mmHg 72%
11:00 +8°C° 0 mm 7 mps 737 mmHg 68%
12:00 +9°C° 0 mm 7 mps 737 mmHg 65%
13:00 +9°C° 0.1 mm 7 mps 737 mmHg 66%
14:00 +8°C° 0.1 mm 7 mps 738 mmHg 67%
15:00 +8°C° 0.1 mm 6 mps 738 mmHg 68%
16:00 +8°C° 0 mm 6 mps 738 mmHg 70%
17:00 +7°C° 0 mm 5 mps 739 mmHg 72%
18:00 +6°C° 0 mm 5 mps 739 mmHg 74%
19:00 +6°C° 0 mm 5 mps 740 mmHg 75%
20:00 +6°C° 0 mm 5 mps 740 mmHg 75%
21:00 +5°C° 0 mm 6 mps 741 mmHg 76%
22:00 +5°C° 0 mm 6 mps 742 mmHg 76%
23:00 +5°C° 0 mm 6 mps 742 mmHg 76%

Day after tomorrow, 29 October, Thursday

Time Temperature Precipitation Wind Pressure Humidity
00:00 +5°C° 0 mm 6 mps 743 mmHg 76%
01:00 +5°C° 0 mm 6 mps 743 mmHg 76%
02:00 +5°C° 0 mm 6 mps 744 mmHg 75%
03:00 +6°C° 0 mm 5 mps 745 mmHg 75%
04:00 +6°C° 0 mm 5 mps 745 mmHg 75%
05:00 +6°C° 0 mm 5 mps 746 mmHg 76%
06:00 +6°C° 0 mm 4 mps 747 mmHg 76%
07:00 +6°C° 0 mm 4 mps 747 mmHg 76%
08:00 +7°C° 0 mm 4 mps 748 mmHg 76%
09:00 +7°C° 0 mm 4 mps 748 mmHg 76%
10:00 +7°C° 0.2 mm 4 mps 748 mmHg 79%
11:00 +8°C° 0.2 mm 5 mps 748 mmHg 82%
12:00 +8°C° 0.2 mm 5 mps 748 mmHg 84%
13:00 +9°C° 0.4 mm 5 mps 748 mmHg 85%
14:00 +9°C° 0.4 mm 6 mps 748 mmHg 86%
15:00 +10°C° 0.4 mm 6 mps 748 mmHg 87%
16:00 +10°C° 0 mm 6 mps 748 mmHg 86%
17:00 +10°C° 0 mm 6 mps 748 mmHg 86%
18:00 +11°C° 0 mm 6 mps 748 mmHg 86%
19:00 +11°C° 0 mm 6 mps 748 mmHg 85%
20:00 +11°C° 0 mm 6 mps 748 mmHg 85%
21:00 +11°C° 0 mm 6 mps 748 mmHg 84%
22:00 +11°C° 0 mm 6 mps 747 mmHg 84%
23:00 +11°C° 0 mm 7 mps 747 mmHg 84%

30 October, Friday

Time Temperature Precipitation Wind Pressure Humidity
00:00 +11°C° 0 mm 7 mps 747 mmHg 83%
01:00 +11°C° 0 mm 7 mps 747 mmHg 84%
02:00 +12°C° 0 mm 7 mps 747 mmHg 84%
03:00 +12°C° 0 mm 7 mps 747 mmHg 85%
04:00 +12°C° 0 mm 7 mps 747 mmHg 85%
05:00 +12°C° 0 mm 7 mps 747 mmHg 85%
06:00 +13°C° 0 mm 8 mps 747 mmHg 86%
07:00 +14°C° 0 mm 7 mps 747 mmHg 85%
08:00 +14°C° 0 mm 7 mps 747 mmHg 84%
09:00 +15°C° 0 mm 7 mps 747 mmHg 83%
10:00 +15°C° 0 mm 7 mps 748 mmHg 79%
11:00 +15°C° 0 mm 7 mps 749 mmHg 74%
12:00 +15°C° 0 mm 7 mps 749 mmHg 70%
13:00 +15°C° 0 mm 6 mps 750 mmHg 70%
14:00 +14°C° 0 mm 5 mps 750 mmHg 70%
15:00 +14°C° 0 mm 4 mps 751 mmHg 71%
16:00 +13°C° 0 mm 4 mps 751 mmHg 73%
17:00 +12°C° 0 mm 3 mps 752 mmHg 75%
18:00 +13°C° 0 mm 2 mps 752 mmHg 77%
19:00 +13°C° 0 mm 1 mps 752 mmHg 77%
20:00 +12°C° 0 mm 1 mps 752 mmHg 77%
21:00 +11°C° 0 mm 0 mps 753 mmHg 78%
22:00 +12°C° 0.3 mm 1 mps 752 mmHg 81%
23:00 +12°C° 0.3 mm 1 mps 752 mmHg 84%

31 October, Saturday

Time Temperature Precipitation Wind Pressure Humidity
00:00 +12°C° 0.3 mm 2 mps 752 mmHg 87%
01:00 +12°C° 0.4 mm 2 mps 751 mmHg 89%
02:00 +12°C° 0.4 mm 3 mps 750 mmHg 91%
03:00 +12°C° 0.4 mm 4 mps 750 mmHg 94%
04:00 +12°C° 0 mm 5 mps 749 mmHg 92%
05:00 +12°C° 0 mm 5 mps 749 mmHg 91%
06:00 +13°C° 0 mm 6 mps 748 mmHg 90%
07:00 +13°C° 0 mm 6 mps 747 mmHg 88%
08:00 +12°C° 0 mm 7 mps 747 mmHg 86%
09:00 +13°C° 0 mm 8 mps 746 mmHg 85%
10:00 +13°C° 0 mm 8 mps 745 mmHg 81%
11:00 +15°C° 0 mm 9 mps 745 mmHg 77%
12:00 +15°C° 0 mm 9 mps 744 mmHg 74%
13:00 +15°C° 0.1 mm 9 mps 743 mmHg 75%
14:00 +15°C° 0.1 mm 9 mps 742 mmHg 76%
15:00 +13°C° 0.1 mm 9 mps 741 mmHg 77%
16:00 +13°C° 0.3 mm 9 mps 741 mmHg 77%
17:00 +12°C° 0.3 mm 9 mps 740 mmHg 77%
18:00 +12°C° 0.3 mm 9 mps 740 mmHg 76%
19:00 +11°C° 0.1 mm 9 mps 741 mmHg 75%
20:00 +10°C° 0.1 mm 9 mps 742 mmHg 75%
21:00 +10°C° 0.1 mm 8 mps 743 mmHg 74%
22:00 +9°C° 0 mm 7 mps 744 mmHg 75%
23:00 +9°C° 0 mm 7 mps 744 mmHg 76%

1 November, Sunday

Time Temperature Precipitation Wind Pressure Humidity
00:00 +9°C° 0 mm 6 mps 745 mmHg 77%
01:00 +9°C° 0 mm 6 mps 744 mmHg 79%
02:00 +9°C° 0 mm 7 mps 744 mmHg 80%
03:00 +10°C° 0 mm 7 mps 743 mmHg 82%
04:00 +10°C° 0.1 mm 8 mps 743 mmHg 82%
05:00 +11°C° 0.1 mm 8 mps 742 mmHg 82%
06:00 +11°C° 0.1 mm 9 mps 741 mmHg 83%
07:00 +12°C° 0.2 mm 9 mps 741 mmHg 83%
08:00 +12°C° 0.2 mm 10 mps 741 mmHg 82%
09:00 +13°C° 0.2 mm 10 mps 740 mmHg 82%
10:00 +13°C° 0.1 mm 10 mps 740 mmHg 82%
11:00 +13°C° 0.1 mm 10 mps 740 mmHg 81%
12:00 +14°C° 0.1 mm 10 mps 740 mmHg 81%
13:00 +14°C° 0 mm 10 mps 739 mmHg 81%
14:00 +16°C° 0 mm 10 mps 739 mmHg 81%
15:00 +16°C° 0 mm 10 mps 738 mmHg 81%
16:00 +16°C° 0.1 mm 9 mps 738 mmHg 82%
17:00 +16°C° 0.1 mm 9 mps 739 mmHg 82%
18:00 +16°C° 0.1 mm 8 mps 739 mmHg 83%
19:00 +16°C° 0.3 mm 8 mps 739 mmHg 85%
20:00 +16°C° 0.3 mm 7 mps 740 mmHg 86%
21:00 +15°C° 0.3 mm 7 mps 741 mmHg 87%
22:00 +14°C° 0.3 mm 6 mps 741 mmHg 85%
23:00 +13°C° 0.3 mm 5 mps 741 mmHg 84%
Show more